Location: Cajon Junction
(34.3117°N, 117.4748°W)
Time: 05:39:54
(UTC+00:00)

Cosmos 1470 Rocket - Pass Details

Date: 18 April 2024
Orbit: 601 x 629 km, 82.5° (Epoch: 28 May)

Event Time Altitude Azimuth Distance (km) Brightness Sun altitude
Rises 12:08:40 0° 342° (NNW) 2,898 7.1 -13.6°
Reaches altitude 10° 12:11:03 10° 333° (NNW) 1,993 6.1 -13.2°
Maximum altitude 12:15:00 33° 269° (W) 1,051 4.2 -12.4°
Drops below altitude 10° 12:18:58 10° 205° (SSW) 1,993 5.7 -11.7°
Enters shadow 12:20:11 - 200° (SSW) 2,447 6.2 -11.4°
